Dublin, Ireland

11:27 AM IST on August 20, 2017 (GMT +0100)
Dublin International

Weather History for EIDW - February, 2013

Change the Weather History Date:

Monday, February 11, 2013

  Actual Average Record
Temperature  
Mean Temperature 38 °F -  
Max Temperature 39 °F 47 °F 55 °F (1998)
Min Temperature 37 °F 37 °F 28 °F (2008)
Degree Days  
Heating Degree Days 27    
Moisture  
Dew Point 36 °F    
Average Humidity 92    
Maximum Humidity 100    
Minimum Humidity 81    
Precipitation  
Precipitation 0.00 in 0.07 in - ()
Sea Level Pressure  
Sea Level Pressure 29.53 in    
Wind  
Wind Speed 9 mph ()    
Max Wind Speed 14 mph    
Max Gust Speed -    
Visibility 5.5 miles    
Events Rain    
Averages and records for this station are not official NWS values.
T = Trace of Precipitation, MM = Missing Value Source: Averaged Metar Reports

Daily Weather History Graph

Daily Weather History Graph

Search for Another Location

Airport or City:

Trip Planner

Search our weather history database for the weather conditions in past years. The results will help you decide how hot, cold, wet, or windy it might be!

Date:

Astronomy

Feb. 11, 2013 Rise Set
Actual Time 7:51 AM GMT 5:28 PM GMT
Civil Twilight 7:14 AM GMT 6:04 PM GMT
Nautical Twilight 6:33 AM GMT 6:45 PM GMT
Astronomical Twilight 5:53 AM GMT 7:26 PM GMT
Moon 7:49 AM GMT (2/11) 7:32 PM GMT (2/11)
Length of Visible Light 10h 50m
Length of Day
9h 36m
New Moon, 2% of the Moon is Illuminated
Feb 11
New Moon
Feb 17
First Quarter
Feb 25
Full
Mar 4
Last Quarter
Mar 11
New

Hourly Weather History & Observations

Time (GMT) Temp. Windchill Dew Point Humidity Pressure Visibility Wind Dir Wind Speed Gust Speed Precip Events Conditions
12:00 AM 39 °F - 39 °F 98% 29.26 in 7 mi North 4.5 mph - - Rain Light Drizzle
12:00 AM 39.2 °F 35.9 °F 39.2 °F 100% 29.24 in 6.2 mi North 4.6 mph - N/A   Light Drizzle
12:30 AM 39.2 °F 37.0 °F 39.2 °F 100% 29.24 in 6.2 mi Variable 3.5 mph - N/A   Light Drizzle
1:00 AM 39.2 °F 31.6 °F 39.2 °F 100% 29.27 in 4.3 mi ENE 12.7 mph - N/A Rain Light Rain
1:30 AM 39.2 °F 31.6 °F 37.4 °F 93% 29.27 in 5.6 mi ENE 12.7 mph - N/A Rain Light Rain
2:00 AM 39.2 °F 32.0 °F 37.4 °F 93% 29.30 in 6.2 mi NE 11.5 mph - N/A Rain Light Rain
2:30 AM 39.2 °F 31.6 °F 37.4 °F 93% 29.30 in 6.2 mi NE 12.7 mph - N/A   Light Drizzle
3:00 AM 39.2 °F 31.2 °F 35.6 °F 87% 29.30 in 6.2 mi NE 13.8 mph - N/A   Mostly Cloudy
3:30 AM 39.2 °F 31.2 °F 35.6 °F 87% 29.33 in 6.2 mi NE 13.8 mph - N/A   Mostly Cloudy
4:00 AM 37.4 °F 28.9 °F 35.6 °F 93% 29.33 in 6.2 mi NE 13.8 mph - N/A   Mostly Cloudy
4:30 AM 39.2 °F 31.6 °F 35.6 °F 87% 29.33 in 6.2 mi NE 12.7 mph - N/A   Mostly Cloudy
5:00 AM 37.4 °F 29.3 °F 35.6 °F 93% 29.36 in 6.2 mi NE 12.7 mph - N/A   Mostly Cloudy
5:30 AM 37.4 °F 29.3 °F 35.6 °F 93% 29.39 in 6.2 mi NE 12.7 mph - N/A   Mostly Cloudy
6:00 AM 38 °F - 35 °F 87% 29.40 in 11 mi NE 13.4 mph - - Rain Light Drizzle
6:00 AM 39.2 °F 31.2 °F 35.6 °F 87% 29.39 in 6.2 mi NE 13.8 mph - N/A   Mostly Cloudy
6:30 AM 39.2 °F 32.0 °F 35.6 °F 87% 29.39 in 6.2 mi NE 11.5 mph - N/A   Mostly Cloudy
7:00 AM 39.2 °F 31.6 °F 35.6 °F 87% 29.42 in 5.6 mi ENE 12.7 mph - N/A   Light Drizzle
7:30 AM 37.4 °F 30.3 °F 37.4 °F 100% 29.44 in 4.3 mi ENE 10.4 mph - N/A   Light Drizzle
8:00 AM 37.4 °F 30.8 °F 37.4 °F 100% 29.44 in 5.0 mi NE 9.2 mph - N/A   Light Drizzle
8:30 AM 37.4 °F 30.8 °F 37.4 °F 100% 29.47 in 5.0 mi NE 9.2 mph - N/A   Light Drizzle
9:00 AM 37.4 °F 30.3 °F 35.6 °F 93% 29.47 in 5.0 mi ENE 10.4 mph - N/A   Light Drizzle
9:30 AM 37.4 °F 30.3 °F 35.6 °F 93% 29.50 in 3.7 mi ENE 10.4 mph - N/A   Light Drizzle
10:00 AM 37.4 °F 30.3 °F 35.6 °F 93% 29.50 in 3.7 mi ENE 10.4 mph - N/A   Light Drizzle
10:30 AM 37.4 °F 32.1 °F 35.6 °F 93% 29.53 in 6.2 mi ENE 6.9 mph - N/A   Light Drizzle
11:00 AM 39.2 °F 33.0 °F 35.6 °F 87% 29.53 in 6.2 mi ENE 9.2 mph - N/A   Mostly Cloudy
11:30 AM 39.2 °F 32.5 °F 35.6 °F 87% 29.56 in 6.2 mi ENE 10.4 mph - N/A   Mostly Cloudy
12:00 PM 39 °F - 36 °F 83% 29.59 in 11 mi ENE 11.2 mph - - Rain Light Drizzle
12:00 PM 39.2 °F 32.5 °F 35.6 °F 87% 29.56 in 6.2 mi ENE 10.4 mph - N/A   Mostly Cloudy
12:30 PM 39.2 °F 32.0 °F 35.6 °F 87% 29.56 in 6.2 mi ENE 11.5 mph - N/A   Mostly Cloudy
1:00 PM 39.2 °F 32.5 °F 35.6 °F 87% 29.59 in 6.2 mi ENE 10.4 mph - N/A   Mostly Cloudy
1:30 PM 39.2 °F 33.6 °F 33.8 °F 81% 29.59 in 6.2 mi ENE 8.1 mph - N/A   Light Drizzle
2:00 PM 39.2 °F 33.0 °F 33.8 °F 81% 29.62 in 6.2 mi NE 9.2 mph - N/A   Mostly Cloudy
2:30 PM 39.2 °F 33.0 °F 33.8 °F 81% 29.62 in 6.2 mi NE 9.2 mph - N/A   Mostly Cloudy
3:00 PM 39.2 °F 33.6 °F 33.8 °F 81% 29.62 in 6.2 mi NE 8.1 mph - N/A   Mostly Cloudy
3:30 PM 39.2 °F 33.0 °F 33.8 °F 81% 29.62 in 6.2 mi NE 9.2 mph - N/A   Mostly Cloudy
4:00 PM 39.2 °F 33.0 °F 33.8 °F 81% 29.65 in 6.2 mi NE 9.2 mph - N/A   Mostly Cloudy
4:30 PM 39.2 °F 33.0 °F 33.8 °F 81% 29.65 in 6.2 mi ENE 9.2 mph - N/A   Mostly Cloudy
5:00 PM 39.2 °F 32.0 °F 35.6 °F 87% 29.68 in 5.6 mi East 11.5 mph - N/A   Mostly Cloudy
5:30 PM 37.4 °F 30.8 °F 35.6 °F 93% 29.68 in 4.3 mi ENE 9.2 mph - N/A   Light Drizzle
6:00 PM 38 °F - 37 °F 95% 29.71 in 4 mi East 8.9 mph - - Rain Light Drizzle
6:00 PM 37.4 °F 31.4 °F 37.4 °F 100% 29.68 in 3.7 mi East 8.1 mph - N/A   Light Drizzle
6:30 PM 37.4 °F 31.4 °F 37.4 °F 100% 29.71 in 2.8 mi East 8.1 mph - N/A   Light Drizzle
7:00 PM 37.4 °F 32.1 °F 37.4 °F 100% 29.71 in 2.5 mi East 6.9 mph - N/A   Light Drizzle
7:30 PM 37.4 °F 32.1 °F 37.4 °F 100% 29.71 in 2.8 mi East 6.9 mph - N/A   Light Drizzle
8:00 PM 37.4 °F 30.8 °F 37.4 °F 100% 29.74 in 2.8 mi East 9.2 mph - N/A Rain Light Rain
8:30 PM 37.4 °F 32.1 °F 37.4 °F 100% 29.74 in 3.7 mi East 6.9 mph - N/A Rain Light Rain
9:00 PM 37.4 °F 31.4 °F 37.4 °F 100% 29.77 in 3.7 mi East 8.1 mph - N/A Rain Light Rain
9:30 PM 37.4 °F 33.8 °F 37.4 °F 100% 29.77 in 4.3 mi East 4.6 mph - N/A Rain Light Rain
10:00 PM 37.4 °F 32.1 °F 37.4 °F 100% 29.77 in 4.3 mi East 6.9 mph - N/A Rain Light Rain
11:00 PM 37.4 °F 32.8 °F 37.4 °F 100% 29.80 in 5.0 mi East 5.8 mph - N/A   Light Drizzle
11:30 PM 37.4 °F 32.8 °F 37.4 °F 100% 29.80 in 5.0 mi East 5.8 mph - N/A   Light Drizzle